User: anonymous   Login
Location: Fisheating Creek Campgrounds
(26.9333°N, 81.3167°W)
Time: 11:52:22
(UTC-05:00)
Language:

Cosmos 2221 Rocket - Orbit

View from above orbital plane
View from above orbital plane
View from above satellite
View from above satellite

Ground track
Ground track

The orbit data is extracted from the following two-line orbital elements,

1 22237U 92080B   17352.18218694  .00000101  00000-0  10748-4 0  9998
2 22237  82.5120 306.5551 0018885 327.9136 111.1392 14.78340748350622
Epoch (UTC): 18 December 2017 04:22:20
Eccentricity: 0.0018885
inclination: 82.5120°
perigee height: 621 km
apogee height: 648 km
right ascension of ascending node: 306.5551°
argument of perigee: 327.9136°
revolutions per day: 14.78340748
mean anomaly at epoch: 111.1392°
orbit number at epoch: 35062

The dashed part of the orbit path shows where the satellite is in the earth's shadow,  

DLR